Regional Weather Roundup
Issued by NWS

Home | Current Version | Previous Version | Graphics & Text | Print | Product List | Glossary On
Versions: 1 2 3 4 5 6 7 8 9 10 11 12 13 14 15 16 17 18 19 20 21 22 23 24 25 26 27 28 29 30 31 32 33 34 35 36 37 38 39 40 41 42 43 44 45 46 47 48 49 50
000
ASUS43 KFSD 012202
RWRSD

WEATHER ROUNDUP FOR SOUTH DAKOTA
NATIONAL WEATHER SERVICE SIOUX FALLS SD
500 PM CDT SUN MAY 01 2016

NOTE: "FAIR" INDICATES FEW OR NO CLOUDS BELOW 12,000 FEET WITH NO
SIGNIFICANT WEATHER AND/OR OBSTRUCTIONS TO VISIBILITY.


SDZ001>005-009-010-012>017-012300-
NORTHWEST AND NORTH CENTRAL SOUTH DAKOTA

CITY           SKY/WX    TMP DP  RH WIND       PRES   REMARKS
BUFFALO          N/A     61  27  27 VRB5      30.17F
FAITH            N/A     61  27  27 N8        30.22F
MOBRIDGE       SUNNY     63  32  31 NW9       30.19F
$$

SDZ012>016-024>037-041>051-057-063-072>074-012300-
SOUTHWEST AND SOUTH CENTRAL SOUTH DAKOTA

CITY           SKY/WX    TMP DP  RH WIND       PRES   REMARKS
RAPID CTY ARPT SUNNY     57  30  35 N12G17    30.24F
PIERRE         SUNNY     60  32  34 N8        30.20F
CUSTER         SUNNY     50  21  32 VRB5G18   30.24F
ELLSWORTH AFB  SUNNY     58  30  35 NE10      30.23F
PHILIP         SUNNY     60  31  33 N8        30.22F
PINE RIDGE     SUNNY     57  30  35 N9        30.23F
WINNER         FAIR      58  32  37 NE14G20   30.21F
$$

SDZ004>011-016>023-039-040-012300-
NORTHEAST SOUTH DAKOTA

CITY           SKY/WX    TMP DP  RH WIND       PRES   REMARKS
ABERDEEN       SUNNY     64  30  27 VRB6      30.19F
WATERTOWN      SUNNY     60  32  34 NE13      30.16F
BROOKINGS      MOSUNNY   57  33  40 NE9       30.15F
SISSETON         N/A     63  29  27 NE10      30.15F
$$

SDZ017-020-022-023-036>040-048>070-012300-
SOUTHEAST SOUTH DAKOTA

CITY           SKY/WX    TMP DP  RH WIND       PRES   REMARKS
SIOUX FALLS    PTSUNNY   59  39  47 NE8       30.15F
HURON          SUNNY     61  33  35 NE10      30.18F
MITCHELL       SUNNY     58  37  45 N14       30.18F
YANKTON        PTSUNNY   55  37  50 N9        30.15F
$$

ABBREVIATIONS USED IN REMARKS
   TC - TEMPERATURE IN CELSIUS
  WCI - WIND CHILL INDEX
   HX - HEAT INDEX
  VSB - VISIBILITY





USA.gov is the U.S. government's official web portal to all federal, state and local government web resources and services.